Weather History for Portland Troutdale, OR

Change the Weather History Date:

Tuesday, January 22, 2013

  Actual Average Record
Temperature  
Mean Temperature 34 °F 40 °F  
Max Temperature 37 °F 47 °F 57 °F (1978)
Min Temperature 31 °F 34 °F 13 °F (2004)
Degree Days  
Heating Degree Days 31 24  
Month to date heating degree days 629 566  
Cooling Degree Days 0 0  
Month to date cooling degree days 0 0  
Moisture  
Dew Point 23 °F    
Average Humidity 66    
Maximum Humidity 72    
Minimum Humidity 59    
Precipitation  
Precipitation 0.00 in 0.18 in 1.10 in (1996)
Month to date precipitation 0.85 4.61  
Year to date precipitation 0.85 4.61  
Snow  
Snow 0.00 in - - ()
Month to date snowfall 0.0  
Snow Depth 0.00 in    
Sea Level Pressure  
Sea Level Pressure 30.06 in    
Wind  
Wind Speed 22 mph (East)    
Max Wind Speed 32 mph    
Max Gust Speed 45 mph    
Visibility 10 miles    
Events      
T = Trace of Precipitation, MM = Missing Value Source: NWS Daily Summary

Daily Weather History Graph

Daily Weather History Graph

Search for Another Location

Airport:

Trip Planner

Search our weather history database for the weather conditions in past years. The results will help you decide how hot, cold, wet, or windy it might be!

Date:

Astronomy

Jan. 22, 2013 Rise Set
Actual Time 7:40 AM PST 5:02 PM PST
Civil Twilight 7:08 AM PST 5:34 PM PST
Nautical Twilight 6:32 AM PST 6:11 PM PST
Astronomical Twilight 5:56 AM PST 6:46 PM PST
Moon 1:27 PM PST (1/22) 4:09 AM PST (1/22)
Length of Visible Light 10h 26m
Length of Day
9h 21m
Waxing Gibbous, 83% of the Moon is Illuminated
Jan 22
Waxing Gibbous
Jan 26
Full
Feb 3
Last Quarter
Feb 9
New
Feb 17
First Quarter

Hourly Weather History & Observations

Time (PST) Temp. Windchill Dew Point Humidity Pressure Visibility Wind Dir Wind Speed Gust Speed Precip Events Conditions
12:53 AM 32.0 °F 20.1 °F 23.0 °F 69% 30.16 in 10.0 mi East 19.6 mph 34.5 mph N/A   Clear
1:53 AM 32.0 °F 19.5 °F 24.1 °F 73% 30.15 in 10.0 mi East 21.9 mph 38.0 mph N/A   Clear
2:53 AM 32.0 °F 21.6 °F 23.0 °F 69% 30.15 in 10.0 mi East 15.0 mph 29.9 mph N/A   Clear
3:53 AM 32.0 °F 23.0 °F 21.9 °F 66% 30.14 in 10.0 mi East 11.5 mph 19.6 mph N/A   Clear
4:53 AM 32.0 °F 18.4 °F 23.0 °F 69% 30.12 in 10.0 mi East 26.5 mph 36.8 mph N/A   Clear
5:53 AM 32.0 °F 20.5 °F 21.9 °F 66% 30.12 in 10.0 mi East 18.4 mph 29.9 mph N/A   Clear
6:53 AM 32.0 °F 23.6 °F 21.0 °F 64% 30.12 in 10.0 mi ENE 10.4 mph - N/A   Clear
7:53 AM 32.0 °F 21.2 °F 21.9 °F 66% 30.09 in 10.0 mi ENE 16.1 mph 26.5 mph N/A   Clear
8:53 AM 33.1 °F 21.9 °F 21.0 °F 61% 30.10 in 10.0 mi East 18.4 mph 32.2 mph N/A   Clear
9:53 AM 34.0 °F 20.5 °F 23.0 °F 64% 30.12 in 10.0 mi East 28.8 mph 38.0 mph N/A   Clear
10:53 AM 34.0 °F 20.5 °F 23.0 °F 64% 30.11 in 10.0 mi East 28.8 mph 40.3 mph N/A   Clear
11:53 AM 35.1 °F 23.0 °F 23.0 °F 61% 30.09 in 10.0 mi East 24.2 mph 32.2 mph N/A   Clear
12:53 PM 35.1 °F 23.0 °F 23.0 °F 61% 30.06 in 10.0 mi East 24.2 mph 34.5 mph N/A   Clear
1:53 PM 36.0 °F 24.2 °F 24.1 °F 62% 30.04 in 10.0 mi East 24.2 mph 31.1 mph N/A   Clear
2:53 PM 37.0 °F 25.4 °F 24.1 °F 59% 30.03 in 10.0 mi East 25.3 mph 34.5 mph N/A   Clear
3:53 PM 36.0 °F 24.7 °F 24.1 °F 62% 30.02 in 10.0 mi East 21.9 mph 31.1 mph N/A   Clear
4:53 PM 34.0 °F 23.0 °F 23.0 °F 64% 30.00 in 10.0 mi East 18.4 mph 32.2 mph N/A   Clear
5:53 PM 34.0 °F 22.4 °F 23.0 °F 64% 29.97 in 10.0 mi East 20.7 mph 36.8 mph N/A   Clear
6:53 PM 33.1 °F 20.6 °F 21.9 °F 64% 29.98 in 10.0 mi East 23.0 mph 33.4 mph N/A   Clear
7:53 PM 33.1 °F 19.6 °F 21.9 °F 64% 29.98 in 10.0 mi East 27.6 mph 36.8 mph N/A   Clear
8:53 PM 33.1 °F 20.6 °F 21.9 °F 64% 29.95 in 10.0 mi East 23.0 mph 34.5 mph N/A   Clear
9:53 PM 33.1 °F 20.9 °F 21.9 °F 64% 29.96 in 10.0 mi East 21.9 mph 35.7 mph N/A   Clear
10:53 PM 33.1 °F 19.6 °F 21.9 °F 64% 29.96 in 10.0 mi East 27.6 mph 35.7 mph N/A   Clear
11:53 PM 33.1 °F 19.3 °F 23.0 °F 66% 29.97 in 10.0 mi East 28.8 mph 36.8 mph N/A   Partly Cloudy